Weather reports worldwide

Advertisment
Bilbao/Aeropuerto, Spain (8025): temperature & dewpoint: 19.09.2018 08:00:00 - 25.09.2018 08:00:00 (CEST)Bilbao/Aeropuerto, Spain (8025): wind speed: 19.09.2018 08:00:00 - 25.09.2018 08:00:00 (CEST)Bilbao/Aeropuerto, Spain (8025): wind direction: 19.09.2018 08:00:00 - 25.09.2018 08:00:00 (CEST)Bilbao/Aeropuerto, Spain (8025): reduced air pressure: 19.09.2018 08:00:00 - 25.09.2018 08:00:00 (CEST)Bilbao/Aeropuerto, Spain (8025): visibility: 19.09.2018 08:00:00 - 25.09.2018 08:00:00 (CEST)
Date & Time tt [°C] td [°C] ff [km/h] ff [kn] dd ppp [hPa] vv [km]
25.09.2018 08:00:00 - - - - - - -
25.09.2018 07:00:00 9,2 9,2 8 4 E 1029,4 -
25.09.2018 06:00:00 9,3 9,2 8 4 ESE 1029,7 -
25.09.2018 05:00:00 9,4 9,3 5 3 E 1029,9 15
25.09.2018 04:00:00 9,6 9,3 8 4 E 1030,2 -
25.09.2018 03:00:00 10,0 9,7 8 4 E 1030,5 -
25.09.2018 02:00:00 10,0 9,7 9 5 ESE 1030,5 -
25.09.2018 01:00:00 10,1 9,6 8 4 ESE 1030,9 -
25.09.2018 00:00:00 10,7 9,9 8 4 ESE 1031,4 -
24.09.2018 23:00:00 11,6 10,5 8 4 E 1031,4 15
24.09.2018 22:00:00 11,9 10,3 5 3 SE 1031,2 -
24.09.2018 21:00:00 13,6 10,5 4 2 W 1031,2 -
24.09.2018 20:00:00 15,0 9,6 8 4 NNW 1030,9 40
24.09.2018 19:00:00 16,4 9,1 15 8 N 1030,9 -
24.09.2018 18:00:00 17,0 10,1 13 7 N 1030,7 -
24.09.2018 17:00:00 17,9 10,9 15 8 NNE 1030,8 40
24.09.2018 16:00:00 18,0 11,2 13 7 NNE 1031,0 -
24.09.2018 15:00:00 18,6 13,1 15 8 NNE 1031,2 -
24.09.2018 14:00:00 18,0 13,4 16 9 NE 1031,6 25
24.09.2018 13:00:00 17,9 14,0 15 8 NE 1031,9 -
24.09.2018 12:00:00 18,2 15,6 8 4 ENE 1031,9 -
24.09.2018 11:00:00 16,4 16,4 5 3 W 1031,9 12
24.09.2018 10:00:00 15,8 15,8 4 2 WNW 1031,4 -
24.09.2018 09:00:00 15,9 15,9 5 3 WNW 1030,7 -
24.09.2018 08:00:00 16,3 16,0 4 2 WNW 1030,0 8
24.09.2018 07:00:00 16,6 16,6 8 4 W 1029,5 -
24.09.2018 06:00:00 17,2 16,6 15 8 NNE 1029,1 -
24.09.2018 05:00:00 17,9 17,4 16 9 NE 1028,6 8
24.09.2018 04:00:00 18,1 18,1 8 4 WNW 1028,4 -
24.09.2018 03:00:00 18,5 18,5 8 4 WNW 1028,5 -
24.09.2018 02:00:00 19,4 19,4 11 6 N 1027,8 -
24.09.2018 01:00:00 19,7 19,7 2 1 W 1027,6 -
24.09.2018 00:00:00 19,5 19,5 4 2 ESE 1027,5 -
23.09.2018 23:00:00 20,1 18,9 8 4 E 1027,5 8
23.09.2018 22:00:00 20,3 18,6 8 4 SSE 1027,5 -
23.09.2018 21:00:00 20,6 18,2 4 2 SE 1027,1 -
23.09.2018 20:00:00 20,6 18,0 9 5 WNW 1026,7 10
23.09.2018 19:00:00 21,9 18,1 15 8 NW 1026,1 -
23.09.2018 18:00:00 22,2 18,2 16 9 NNW 1025,7 -
23.09.2018 17:00:00 22,3 19,1 18 10 NW 1025,4 10
23.09.2018 16:00:00 21,9 18,8 16 9 NW 1025,4 -
23.09.2018 15:00:00 23,5 18,0 24 13 NW 1024,6 -
23.09.2018 14:00:00 24,4 18,5 16 9 NW 1024,2 20
23.09.2018 13:00:00 24,0 18,2 18 10 WNW 1024,1 -
23.09.2018 12:00:00 24,2 17,4 8 4 W 1024,3 -
23.09.2018 11:00:00 21,7 16,9 8 4 W 1024,3 40
23.09.2018 10:00:00 19,7 16,7 5 3 E 1024,2 -
23.09.2018 09:00:00 17,3 16,2 0 0 N 1024,0 -
23.09.2018 08:00:00 15,7 15,2 8 4 ESE 1023,8 40
23.09.2018 07:00:00 15,8 15,5 8 4 E 1023,8 -
23.09.2018 06:00:00 15,9 15,6 8 4 E 1023,9 -
23.09.2018 05:00:00 16,1 15,8 8 4 E 1024,1 15
23.09.2018 04:00:00 16,3 15,7 4 2 ESE 1024,7 -
23.09.2018 03:00:00 16,7 15,9 8 4 ESE 1025,3 -
23.09.2018 02:00:00 17,1 16,1 4 2 ESE 1025,4 -
23.09.2018 01:00:00 17,6 16,5 8 4 E 1025,4 -
23.09.2018 00:00:00 18,4 16,7 5 3 E 1025,5 -
22.09.2018 23:00:00 19,1 16,8 5 3 E 1025,4 15
22.09.2018 22:00:00 20,1 16,9 0 0 N 1025,1 -
22.09.2018 21:00:00 21,1 17,1 5 3 WSW 1024,4 -
22.09.2018 20:00:00 23,4 16,6 9 5 W 1023,9 40
22.09.2018 19:00:00 25,9 15,9 15 8 NW 1023,5 -
22.09.2018 18:00:00 27,0 16,1 13 7 NW 1023,4 -
22.09.2018 17:00:00 27,9 16,5 18 10 NW 1023,3 40
22.09.2018 16:00:00 29,6 15,7 22 12 NW 1023,0 -
22.09.2018 15:00:00 29,7 15,5 15 8 NNW 1022,8 -
22.09.2018 14:00:00 29,3 15,5 9 5 WNW 1023,0 40
22.09.2018 13:00:00 27,7 16,4 5 3 NW 1023,2 -
22.09.2018 12:00:00 25,4 17,3 4 2 WSW 1023,1 -
22.09.2018 11:00:00 23,4 17,2 5 3 SE 1023,4 35
22.09.2018 10:00:00 20,7 17,8 5 3 ESE 1023,1 -
22.09.2018 09:00:00 18,0 17,0 8 4 SSE 1023,0 -
22.09.2018 08:00:00 16,8 16,8 4 2 S 1023,0 20
22.09.2018 07:00:00 16,7 16,7 8 4 SSE 1022,6 -
22.09.2018 06:00:00 17,0 17,0 8 4 ESE 1023,0 -
22.09.2018 05:00:00 17,6 17,4 5 3 SE 1023,4 12
22.09.2018 04:00:00 18,4 17,7 5 3 E 1023,8 -
22.09.2018 03:00:00 19,3 18,3 8 4 E 1024,2 -
22.09.2018 02:00:00 19,4 18,2 8 4 E 1024,4 -
22.09.2018 01:00:00 19,4 18,2 5 3 ENE 1024,6 -
22.09.2018 00:00:00 19,2 18,2 2 1 WNW 1024,8 -
21.09.2018 23:00:00 19,3 18,1 4 2 SE 1024,5 12
21.09.2018 22:00:00 19,4 18,4 8 4 NE 1024,8 -
21.09.2018 21:00:00 19,6 18,6 0 0 N 1024,1 -
21.09.2018 20:00:00 19,6 18,4 2 1 WNW 1023,6 9
21.09.2018 19:00:00 20,6 18,2 9 5 N 1023,4 -
21.09.2018 18:00:00 21,9 18,1 15 8 NW 1022,9 -
21.09.2018 17:00:00 21,9 17,9 15 8 NW 1022,8 20
21.09.2018 16:00:00 23,0 17,6 21 11 NNW 1022,4 -
21.09.2018 15:00:00 23,3 17,2 18 10 NW 1022,0 -
21.09.2018 14:00:00 23,8 16,2 18 10 NNW 1022,0 25
21.09.2018 13:00:00 24,4 14,2 16 9 NW 1021,8 -
21.09.2018 12:00:00 22,6 17,3 5 3 SE 1021,8 -
21.09.2018 11:00:00 20,1 17,5 9 5 ESE 1021,2 10
21.09.2018 10:00:00 17,9 17,7 8 4 SE 1020,8 -
21.09.2018 09:00:00 17,2 17,2 11 6 ESE 1020,2 -
21.09.2018 08:00:00 17,1 17,1 5 3 ESE 1019,4 7
21.09.2018 07:00:00 16,3 16,3 5 3 SE 1018,6 -
21.09.2018 06:00:00 16,7 16,7 4 2 ESE 1018,4 -
21.09.2018 05:00:00 16,5 16,5 4 2 SE 1018,2 9
21.09.2018 04:00:00 16,7 16,7 4 2 SSE 1018,0 -
21.09.2018 03:00:00 17,3 17,3 4 2 E 1018,2 -
21.09.2018 02:00:00 18,4 18,1 4 2 ENE 1018,2 -
21.09.2018 01:00:00 18,3 17,7 5 3 E 1018,2 -
21.09.2018 00:00:00 19,1 18,1 4 2 SE 1018,3 -
20.09.2018 23:00:00 20,2 18,5 4 2 SE 1018,5 12
20.09.2018 22:00:00 21,4 18,4 4 2 ENE 1018,6 -
20.09.2018 21:00:00 21,4 18,8 5 3 NNW 1018,2 -
20.09.2018 20:00:00 21,5 18,5 9 5 NW 1017,7 12
20.09.2018 19:00:00 23,3 18,6 13 7 NW 1017,4 -
20.09.2018 18:00:00 24,5 17,5 16 9 WNW 1017,0 -
20.09.2018 17:00:00 26,2 17,6 24 13 NW 1016,9 20
20.09.2018 16:00:00 27,1 18,4 18 10 WNW 1016,7 -
20.09.2018 15:00:00 27,3 19,0 22 12 WNW 1017,0 -
20.09.2018 14:00:00 28,0 19,2 18 10 WNW 1017,5 20
20.09.2018 13:00:00 28,3 19,0 5 3 N 1018,3 -
20.09.2018 12:00:00 26,1 19,2 9 5 ESE 1018,9 -
20.09.2018 11:00:00 24,2 18,6 15 8 E 1019,2 20
20.09.2018 10:00:00 22,4 19,2 16 9 ESE 1019,5 -
20.09.2018 09:00:00 20,6 19,4 13 7 ESE 1019,9 -
20.09.2018 08:00:00 20,1 19,3 9 5 ESE 1020,3 15
20.09.2018 07:00:00 20,1 19,4 2 1 E 1020,6 -
20.09.2018 06:00:00 20,1 19,4 5 3 ENE 1020,9 -
20.09.2018 05:00:00 19,9 19,6 4 2 SE 1021,3 15
20.09.2018 04:00:00 19,7 19,4 0 0 N 1021,8 -
20.09.2018 03:00:00 19,7 19,2 4 2 E 1022,2 -
20.09.2018 02:00:00 19,2 18,9 0 0 N 1022,6 -
20.09.2018 01:00:00 18,9 18,6 0 0 N 1022,8 -
20.09.2018 00:00:00 19,0 18,3 0 0 N 1023,0 -
19.09.2018 23:00:00 19,6 18,9 0 0 N 1022,9 8
19.09.2018 22:00:00 20,1 18,9 4 2 W 1022,5 -
19.09.2018 21:00:00 20,2 19,0 8 4 NNW 1022,1 -
19.09.2018 20:00:00 21,3 19,0 9 5 W 1021,8 9
19.09.2018 19:00:00 22,3 19,7 13 7 WNW 1021,6 -
19.09.2018 18:00:00 22,4 19,9 15 8 WNW 1021,5 -
19.09.2018 17:00:00 23,2 19,8 15 8 WNW 1021,3 8
19.09.2018 16:00:00 24,6 19,9 22 12 WNW 1021,3 -
19.09.2018 15:00:00 25,0 19,7 26 14 WNW 1021,1 -
19.09.2018 14:00:00 25,7 19,8 21 11 WNW 1020,9 8
19.09.2018 13:00:00 26,2 19,0 5 3 ENE 1020,9 -
19.09.2018 12:00:00 25,0 19,3 4 2 E 1021,4 -
19.09.2018 11:00:00 22,5 19,4 4 2 WSW 1021,8 8
19.09.2018 10:00:00 20,9 19,2 4 2 NW 1021,3 -
19.09.2018 09:00:00 19,8 18,9 4 2 NW 1020,6 -
19.09.2018 08:00:00 19,5 18,7 8 4 SE 1019,8 15

tt = temperature
td = dewpoint
ff = wind speed
dd = wind direction
ppp = reduced air pressure
vv = visibility

Next stations